Theta_e
319 319 317 315 316 316 318 319 318 319 319 320 319 319 321 322 324 325 326 327 327 327 327 327 328 328 327 324 323 323 322 321 320 320 322 324 323 317 313 312 312 312 311 311 311 313 314 314 312 311 312 314 317 317 318 318 318 319 320 320 318 318 318 318 317 317 317 317 315 313 315 318 317 314 314 315 315 315 315 316 317 317 317 317 317 317 317 321
319 318 316 315 315 315 316 317 318 318 319 319 319 318 318 320 322 323 325 326 327 328 327 327 328 328 325 323 322 323 322 321 320 318 321 324 320 316 314 312 312 312 311 310 311 313 314 314 311 311 314 316 317 317 318 318 318 319 320 319 319 320 318 316 317 316 315 317 316 313 315 317 316 315 314 315 316 315 315 316 316 317 318 317 317 317 317 319
319 317 315 314 314 314 314 316 317 317 318 319 318 318 317 318 319 320 322 325 326 327 327 327 328 327 323 322 322 322 322 320 317 317 321 321 318 316 314 312 312 312 310 310 312 314 314 313 311 313 315 316 316 316 317 318 318 319 319 319 320 319 316 313 315 315 313 315 315 314 314 315 315 314 315 316 316 315 316 317 316 317 317 317 317 317 317 318
317 316 314 314 314 313 312 315 317 318 318 318 318 317 317 317 317 318 320 322 324 326 326 326 328 326 322 322 323 323 321 317 314 317 320 319 317 316 314 313 312 311 310 311 312 314 313 311 312 314 316 316 315 315 317 317 317 318 318 319 318 316 316 313 312 313 312 314 315 314 313 314 314 314 315 316 316 316 316 317 316 317 317 317 317 317 317 317
317 315 314 314 313 313 314 316 317 318 318 318 317 316 316 316 316 317 318 320 323 325 326 324 325 325 324 323 323 320 317 315 315 317 319 317 317 316 314 313 312 310 309 312 313 313 312 311 313 315 316 316 315 316 316 315 317 317 315 315 315 314 315 313 311 312 312 313 314 313 314 314 313 314 314 315 316 317 317 316 316 316 316 315 316 316 317 317
316 315 314 313 313 315 316 317 318 318 317 316 315 315 316 316 316 316 318 320 323 325 324 322 322 322 322 320 317 314 313 316 316 317 318 316 315 315 314 313 312 309 310 313 313 312 311 311 314 315 315 316 316 316 315 314 316 318 314 311 312 312 314 312 311 312 312 313 313 314 315 314 314 314 314 314 316 317 316 315 315 316 315 315 315 316 316 317
315 314 313 312 313 316 317 317 317 316 316 315 315 315 317 317 316 317 318 321 323 324 321 321 321 317 315 312 309 309 311 316 315 316 317 314 313 313 313 313 311 309 310 313 312 310 311 312 314 315 315 315 315 314 314 314 315 317 315 312 312 311 312 312 311 312 312 313 313 313 314 313 314 315 313 313 316 316 315 315 314 315 315 315 315 315 316 316
314 313 313 312 313 316 316 316 315 315 314 314 315 316 317 317 317 317 319 321 322 321 320 320 317 312 310 308 308 308 310 314 316 315 315 312 311 311 311 311 309 309 311 313 312 310 311 312 314 314 314 314 314 314 313 314 315 316 315 312 311 311 311 311 311 311 311 312 312 313 314 313 313 313 312 313 315 315 315 315 314 314 315 315 315 315 315 316
313 312 312 313 315 316 316 316 315 315 315 315 316 316 316 316 317 317 318 320 319 320 321 319 313 309 309 308 308 308 310 315 316 314 312 312 311 310 310 310 309 310 312 313 311 310 311 313 314 314 313 313 314 314 313 314 315 315 314 312 311 310 310 311 310 311 311 311 312 313 313 312 312 312 313 314 314 314 315 315 315 314 314 315 315 315 315 315
312 312 313 314 315 315 316 315 315 315 315 316 316 316 316 316 316 316 317 318 318 320 321 316 310 308 308 308 308 309 311 315 315 314 312 311 311 310 309 310 311 312 313 313 310 310 312 312 313 314 313 312 313 313 313 314 314 313 312 311 311 310 309 310 310 310 311 311 311 313 313 311 311 312 314 314 314 314 314 314 314 314 314 314 315 315 315 315
312 312 313 315 314 314 314 314 314 315 316 316 316 316 316 316 316 316 317 318 319 321 319 313 309 308 308 308 308 309 312 315 315 314 312 311 311 310 309 311 312 313 313 311 310 310 311 312 313 313 313 313 312 311 311 312 313 312 312 312 311 311 310 310 311 310 311 312 312 313 312 311 310 312 315 314 314 314 314 314 314 314 314 314 314 314 315 315
313 313 313 314 314 313 313 312 313 314 315 316 315 316 316 316 316 316 318 318 320 320 316 311 309 308 307 307 309 310 313 315 314 313 312 310 310 310 311 312 312 312 311 310 310 310 311 312 313 313 312 313 312 312 312 311 311 312 313 314 311 312 313 311 311 311 311 312 312 312 312 312 312 313 314 314 314 314 314 314 314 314 314 314 314 314 314 315
313 313 313 314 313 313 311 311 312 312 314 315 314 314 316 317 317 317 317 317 318 316 312 309 308 308 307 307 309 310 312 313 312 311 310 310 310 312 313 313 312 311 310 310 310 310 312 313 313 312 312 312 312 312 312 311 311 312 312 314 313 313 313 311 310 311 311 312 311 311 313 314 314 313 313 313 313 314 313 314 314 314 314 314 314 314 314 315
313 313 313 313 313 312 311 311 312 312 314 314 312 311 313 314 315 315 314 314 313 311 309 309 307 307 307 308 309 310 310 311 312 312 311 310 311 313 314 313 311 311 311 311 311 311 312 312 312 312 312 312 312 311 312 310 311 312 312 313 314 314 313 311 310 311 312 312 311 310 312 314 313 311 311 312 313 313 313 314 314 314 314 314 314 314 314 314
313 313 313 313 311 310 310 311 312 313 313 312 310 309 309 309 310 310 310 310 309 309 308 308 306 307 308 308 309 310 309 310 312 314 313 312 313 314 313 312 311 312 311 311 311 311 312 312 312 312 311 312 312 312 312 311 311 311 312 314 314 313 313 311 309 309 312 312 310 310 312 314 313 312 310 312 313 312 313 313 313 314 314 314 314 314 314 314
313 313 312 312 311 310 310 311 312 313 312 310 308 308 308 307 308 308 308 308 308 308 307 306 306 307 308 308 309 310 309 309 311 313 314 313 313 313 312 312 312 312 312 312 312 312 312 312 312 311 311 311 312 313 313 313 312 311 312 316 314 313 313 312 310 308 310 312 311 310 312 313 315 313 311 312 313 312 312 313 313 313 314 314 314 314 314 314
312 312 312 311 311 310 310 311 312 312 310 309 308 307 307 307 308 308 308 307 307 307 307 306 307 307 307 308 310 310 309 309 309 311 314 314 313 312 312 312 313 313 313 313 313 312 312 311 311 311 311 311 312 314 314 312 313 312 313 314 313 312 311 312 312 309 309 311 312 311 311 312 314 313 312 312 312 312 312 313 313 313 313 313 314 314 314 314
312 311 311 311 310 310 310 311 311 311 309 308 307 307 307 307 307 307 306 306 306 306 307 307 307 307 307 308 310 310 309 310 309 310 313 313 312 312 313 313 314 313 313 313 312 312 312 311 312 312 312 311 312 313 313 313 313 313 313 313 311 311 311 311 312 310 309 311 312 312 311 312 314 314 313 312 311 311 312 313 314 314 314 314 314 314 314 314
312 311 311 310 310 310 310 310 310 310 308 308 308 307 306 306 306 306 305 306 307 307 308 308 307 308 309 308 310 311 310 310 309 310 312 312 312 312 313 313 313 313 313 313 313 312 313 312 312 313 313 312 312 313 314 315 315 314 314 314 313 312 311 311 311 308 309 312 313 312 313 313 314 314 314 314 312 311 312 313 314 314 315 314 315 315 315 314
312 311 310 310 310 309 309 310 310 309 308 308 307 306 307 308 308 308 308 307 308 308 308 309 307 309 310 308 310 311 310 311 310 311 312 312 312 313 313 313 313 313 313 314 314 312 313 313 313 314 314 313 313 313 313 313 313 313 313 313 314 314 311 310 310 308 308 312 313 313 313 313 313 314 314 315 312 311 312 313 314 315 315 315 316 315 315 315
313 311 309 310 309 309 308 309 309 309 308 307 307 306 308 309 309 310 310 309 308 308 308 308 308 309 309 308 310 312 311 312 311 311 312 312 312 313 313 313 313 312 312 312 313 312 312 314 315 314 313 312 311 310 310 311 312 313 312 312 313 314 312 310 310 308 307 311 313 311 311 313 313 314 315 314 313 312 313 314 315 315 315 316 316 316 316 316
313 311 309 309 309 308 308 308 309 308 308 307 306 307 307 308 309 309 309 309 308 309 309 308 308 310 309 309 312 312 311 312 312 312 312 312 312 312 312 312 312 312 311 311 313 313 313 315 314 311 309 309 308 308 310 311 312 313 313 312 312 313 312 310 309 308 307 311 313 311 311 314 315 315 315 315 314 314 314 314 315 315 315 315 315 316 315 315
314 312 310 309 309 309 308 308 308 308 308 307 307 307 307 309 310 308 307 308 308 309 309 308 309 310 310 311 312 311 312 312 312 312 312 312 313 312 312 312 312 312 311 312 314 314 314 314 311 308 307 309 309 309 311 312 311 313 314 313 312 313 313 312 311 309 307 308 311 311 312 315 315 314 314 313 312 312 312 312 313 313 314 315 315 315 315 315
315 313 310 309 309 309 308 308 308 308 308 307 307 307 308 309 310 308 308 308 308 309 309 308 308 310 310 311 312 311 311 311 312 313 312 312 312 311 312 312 311 311 311 311 313 314 314 309 305 306 308 311 310 309 312 312 312 314 315 315 314 313 313 312 311 309 308 307 308 310 312 314 315 314 314 311 307 308 309 310 311 312 313 314 314 314 314 314
315 314 312 309 309 310 308 309 309 308 307 307 307 307 308 309 308 308 308 308 309 310 309 308 309 310 311 311 311 311 311 311 312 312 312 312 312 311 312 311 311 312 312 311 311 314 312 305 303 306 309 311 312 311 313 314 313 313 315 315 314 313 313 312 311 311 312 311 309 309 311 312 315 316 315 312 309 310 310 309 310 311 311 312 312 312 313 313
315 315 313 310 309 310 309 310 309 307 307 307 307 307 308 309 308 308 309 309 308 309 309 309 309 310 311 311 312 311 311 312 312 312 312 312 312 311 311 310 310 311 310 310 311 312 308 303 305 309 310 313 313 312 315 316 313 312 313 313 311 313 315 314 314 314 313 312 309 308 311 312 314 316 315 312 313 314 312 311 311 310 311 311 312 312 312 312
316 315 314 312 310 309 309 309 308 307 308 308 307 307 309 309 307 308 308 308 309 309 309 308 308 310 311 312 311 310 311 312 312 312 312 312 312 311 312 310 309 309 308 309 312 310 306 305 307 310 312 313 313 313 315 315 313 313 313 311 311 315 318 316 315 314 312 312 310 310 312 312 312 315 314 311 312 314 313 313 312 311 312 313 313 313 313 313
316 315 315 313 311 309 308 308 307 307 308 307 307 308 309 308 308 308 309 309 310 309 308 307 308 310 311 311 310 309 311 312 312 313 312 312 311 311 312 310 311 311 307 309 313 310 308 309 310 311 312 312 314 315 314 314 314 313 309 310 312 314 317 317 315 313 311 311 312 312 312 311 311 316 314 309 312 314 314 314 313 313 313 313 313 313 313 313
316 315 315 314 313 309 307 308 307 307 308 307 307 308 309 308 307 308 309 310 310 308 308 308 308 310 310 310 310 309 311 311 312 313 311 311 311 311 311 310 310 310 307 310 313 311 309 309 309 310 313 313 312 310 310 316 316 310 306 309 312 313 314 314 314 312 310 311 313 311 309 309 311 319 317 310 312 315 314 313 312 313 312 312 313 313 314 313
316 316 315 315 313 309 307 308 307 307 307 307 308 309 308 307 308 308 308 310 311 308 307 308 309 310 310 309 309 310 310 310 311 311 310 310 310 310 310 310 309 312 312 313 313 310 308 307 308 310 311 310 307 305 306 312 311 308 310 312 313 313 313 312 311 310 310 312 311 307 307 308 309 316 318 313 312 313 313 313 313 313 312 312 313 313 314 314
316 316 316 315 313 309 308 307 307 307 307 307 308 308 307 309 309 308 308 311 311 308 306 307 309 309 309 309 310 310 310 310 310 311 310 309 309 309 309 310 311 312 314 313 312 310 309 309 309 308 306 306 308 307 305 306 307 309 314 314 313 313 312 311 310 310 312 312 308 305 305 307 308 313 315 311 311 311 311 313 313 313 313 312 312 312 313 314
316 316 316 315 313 309 308 307 307 308 307 307 309 307 308 309 308 308 309 310 311 309 308 308 308 309 310 311 312 311 311 311 310 311 312 310 310 310 311 312 313 312 312 312 313 313 312 311 309 308 306 307 312 311 307 307 308 311 314 313 313 313 312 312 312 311 312 310 306 304 305 307 309 312 312 311 312 310 309 311 311 312 312 312 312 312 312 313
315 315 314 314 312 309 307 307 307 308 308 308 308 308 309 309 308 310 308 309 311 310 309 309 308 309 310 311 311 311 312 311 310 311 311 311 311 311 312 313 314 315 314 314 314 313 313 312 310 310 309 309 312 312 310 310 310 312 314 313 313 313 312 313 311 309 310 309 305 303 305 309 311 312 312 312 312 309 307 308 309 310 311 312 312 312 312 313
313 313 313 312 311 309 307 307 308 308 308 309 308 308 310 309 310 311 309 309 310 308 309 310 309 309 310 311 312 311 312 311 310 310 311 311 311 311 312 310 311 316 316 314 314 314 314 313 311 312 311 310 311 311 312 313 311 312 314 314 313 313 313 312 311 310 310 309 305 304 307 311 312 311 312 310 308 308 308 308 308 309 311 312 312 312 312 313
311 312 312 311 310 308 308 308 308 309 309 308 308 309 310 309 310 311 309 309 309 308 309 310 310 310 311 312 312 311 312 312 311 311 311 312 311 311 312 310 310 314 315 313 312 313 313 312 310 309 307 309 311 310 310 313 312 310 310 311 312 313 312 309 307 308 308 308 308 307 309 312 312 311 311 309 307 307 307 307 309 310 311 312 312 312 312 313
311 311 311 311 309 309 309 308 308 309 309 308 309 309 310 311 311 312 310 309 309 309 309 310 310 311 311 312 312 311 311 312 312 312 311 312 312 312 313 312 311 312 313 314 313 312 311 311 311 310 307 308 309 308 308 311 312 310 309 310 310 312 314 309 305 304 305 308 310 309 310 311 310 311 312 311 309 309 308 308 308 310 311 312 312 312 312 312
311 310 310 310 310 309 309 308 309 310 309 308 309 309 312 313 311 313 311 309 310 309 310 311 311 311 311 311 312 312 312 313 312 312 312 312 312 312 312 312 310 311 312 313 313 314 312 311 311 312 311 308 306 306 307 307 308 311 311 311 309 309 312 311 308 307 307 309 310 309 309 310 309 311 314 312 310 311 310 309 308 309 310 312 312 312 311 311
310 310 310 311 310 310 309 308 310 310 308 308 309 311 315 314 311 312 310 308 309 311 311 312 311 311 311 311 312 311 312 313 311 311 312 311 312 312 312 312 310 310 310 310 312 316 316 312 310 310 312 309 307 309 310 307 306 309 311 310 309 311 311 309 309 310 310 310 310 309 307 307 309 311 313 312 311 312 311 310 309 309 311 311 311 311 310 310
310 311 312 311 310 310 310 309 311 310 308 308 309 310 315 316 311 309 308 308 311 311 311 312 312 311 311 311 312 311 311 313 311 311 312 312 312 311 311 312 312 309 307 308 312 315 316 315 312 310 311 311 309 311 313 311 307 306 307 308 310 312 311 310 309 310 310 309 310 309 307 308 311 311 311 312 311 311 311 311 312 311 311 311 311 311 311 310
311 313 313 311 310 311 311 310 311 310 308 309 310 310 314 317 313 308 307 309 313 313 313 316 313 311 312 313 312 311 312 312 311 311 312 311 311 310 309 311 312 309 306 308 313 314 313 313 313 311 310 311 311 312 313 314 310 307 308 309 310 309 309 310 309 308 310 309 309 309 308 310 311 310 310 311 310 309 309 310 312 311 310 310 311 311 311 311
312 314 313 311 312 313 311 311 310 309 310 310 312 314 316 316 313 309 307 309 312 311 313 316 315 313 313 312 311 311 311 312 311 311 312 311 310 311 310 309 311 310 308 310 313 314 312 311 313 312 311 311 312 310 309 312 313 311 309 310 312 311 310 311 310 307 307 308 308 308 308 311 312 309 308 309 308 308 307 307 308 309 308 310 311 312 312 313
313 313 313 313 315 313 310 311 311 310 312 311 310 314 314 313 312 311 308 309 312 311 311 314 317 316 315 313 312 312 311 311 311 312 312 311 311 312 310 308 309 309 310 311 313 312 311 312 313 312 311 311 311 307 303 306 311 311 310 311 312 312 311 312 312 309 306 305 306 306 307 312 313 308 306 307 306 305 304 304 305 307 309 311 313 313 313 314
312 311 312 314 315 312 310 312 312 312 313 311 310 312 312 312 313 311 310 311 313 313 314 317 315 313 315 316 314 312 311 312 312 312 313 312 312 311 308 307 308 309 310 312 312 310 311 314 314 310 310 310 309 307 305 307 310 310 310 312 311 312 314 312 311 310 309 307 307 308 308 312 314 307 303 304 303 303 304 305 306 308 311 313 314 313 313 314
311 310 311 313 315 312 311 311 311 312 312 311 313 313 311 312 313 311 311 314 314 313 318 320 313 310 315 317 314 312 311 312 312 311 313 314 311 309 306 306 308 310 310 311 312 311 311 315 314 311 311 311 310 311 310 310 310 310 311 312 311 313 313 309 308 309 310 310 311 311 310 312 313 310 306 305 305 306 306 306 308 311 312 313 313 313 313 313
309 310 310 311 313 313 312 311 310 312 311 311 314 314 312 312 311 310 312 314 312 312 316 316 311 311 316 315 313 313 312 314 315 313 313 315 312 308 306 306 307 309 309 310 311 310 312 315 314 312 313 313 313 313 313 313 311 310 313 313 312 312 312 310 310 309 310 312 311 312 311 310 311 311 310 309 309 309 307 306 309 311 312 313 313 314 313 313
308 309 308 309 310 311 311 311 310 311 311 311 312 313 314 314 311 310 312 313 310 310 313 312 310 313 316 314 312 313 312 313 315 313 313 316 314 309 307 307 306 307 309 309 309 310 314 315 314 313 314 314 314 315 316 317 314 313 315 314 312 312 312 313 312 310 311 311 309 312 314 311 310 311 311 310 311 311 309 308 309 311 312 313 313 313 313 313
306 307 307 308 309 310 310 310 311 312 311 310 311 312 314 315 313 311 312 312 311 311 313 312 311 314 314 312 312 313 312 313 313 312 313 315 313 309 307 307 306 307 309 308 307 311 315 313 313 314 314 315 317 317 316 316 315 315 315 313 311 311 312 313 313 312 313 311 310 313 314 313 312 312 312 312 313 313 311 308 310 312 313 313 314 313 313 313
304 305 305 306 308 309 310 311 311 312 311 310 311 312 313 314 315 314 312 311 311 312 315 315 313 312 313 312 312 313 312 313 313 312 313 314 313 312 310 309 308 307 309 307 307 311 314 312 313 314 313 315 316 316 316 315 315 316 315 313 311 311 312 313 313 314 314 312 312 315 315 313 311 311 313 313 312 312 310 309 310 312 312 313 313 313 313 313
302 303 303 305 306 307 309 311 311 312 311 310 312 313 313 314 314 314 313 312 312 312 315 317 316 314 313 313 313 314 312 312 314 312 311 313 314 314 313 312 309 307 309 309 308 309 312 313 315 313 311 312 312 312 314 315 314 314 314 313 312 311 312 313 313 314 314 313 314 316 317 315 312 311 313 313 310 310 309 309 310 311 313 313 313 313 313 313
302 302 303 304 304 305 307 309 311 312 312 310 311 312 312 313 314 313 313 313 315 314 313 316 317 314 312 312 315 316 313 312 315 314 311 312 314 314 314 314 312 309 309 311 309 308 309 313 315 313 310 311 311 310 311 313 313 313 313 312 312 311 312 312 313 313 313 313 314 315 316 315 312 311 312 311 309 308 308 309 310 310 312 313 313 313 313 312
302 302 302 304 304 305 307 309 310 312 312 310 310 311 312 312 312 314 313 312 314 315 314 315 315 312 310 311 315 316 313 313 315 312 311 312 313 313 314 314 313 311 311 312 312 311 310 311 312 311 310 312 311 309 311 313 313 313 312 312 311 311 311 311 312 313 313 313 314 313 314 313 311 310 310 310 309 308 307 309 310 310 312 313 313 313 313 312
301 302 302 303 304 304 305 308 309 311 312 311 310 311 312 312 312 313 314 312 311 313 313 314 314 313 312 312 314 315 312 311 312 310 310 312 311 310 311 311 311 311 311 312 313 313 312 312 311 310 310 311 307 307 312 312 311 311 311 312 311 311 311 311 312 313 313 313 313 312 313 312 311 310 310 310 309 308 308 309 310 311 311 312 313 313 313 313
Wind_Speed
28 28 26 29 35 37 36 33 32 32 31 31 35 37 36 36 37 37 36 35 34 32 29 27 24 23 21 14 11 15 15 12 11 14 22 27 21 12 10 11 10 10 11 12 11 11 11 11 11 10 11 12 9 10 11 9 10 6 2 2 2 2 2 4 7 4 1 5 9 11 14 10 7 8 6 5 7 4 6 10 8 10 9 6 6 5 15 23
29 28 27 29 33 36 38 36 32 31 30 29 32 35 37 37 36 36 36 35 33 31 27 24 24 24 21 17 15 18 18 17 16 19 24 25 19 14 12 13 13 13 13 12 12 12 13 12 12 12 13 10 7 10 9 8 9 3 1 2 3 2 1 2 5 5 1 5 11 12 15 10 6 9 8 5 5 5 6 9 9 9 10 9 7 6 15 22
28 27 27 28 31 34 38 37 32 30 30 30 31 33 36 37 36 35 35 34 32 29 25 23 24 25 24 23 21 20 20 18 18 21 23 22 20 17 15 13 15 15 14 13 12 13 12 12 12 14 14 9 7 11 7 7 7 2 3 3 2 2 1 1 5 6 3 6 11 11 14 9 5 9 9 4 3 5 7 8 9 10 13 13 10 7 13 20
27 26 25 27 30 32 36 36 31 30 31 31 31 31 34 36 36 35 34 34 31 27 25 23 25 28 27 27 26 24 23 14 16 25 22 21 23 20 18 16 17 16 15 13 11 13 12 11 13 16 14 7 6 9 6 7 6 2 3 1 3 4 2 3 6 7 4 6 10 11 12 8 6 10 8 5 4 6 9 11 11 11 13 16 14 10 11 18
26 26 26 26 29 33 35 34 32 32 32 32 31 31 32 35 36 34 34 33 30 28 26 24 25 28 26 26 25 24 19 5 15 30 24 22 26 22 20 18 19 17 16 13 12 13 12 12 15 16 12 6 6 7 4 7 7 4 1 3 3 4 2 5 7 7 6 7 11 12 11 9 9 9 8 8 6 3 4 9 13 13 12 14 16 15 12 16
26 27 26 26 32 36 34 34 33 33 33 32 30 30 30 32 35 34 34 33 31 29 28 26 26 26 24 24 21 20 18 4 10 25 24 25 26 25 22 20 20 17 16 15 13 14 14 15 16 14 9 5 6 5 5 9 8 4 2 2 4 2 1 6 7 7 8 8 10 11 9 10 10 6 9 13 11 5 2 3 7 11 13 12 14 17 15 15
27 27 27 27 35 36 33 35 33 31 31 30 29 29 29 30 33 33 34 34 33 31 29 27 25 24 23 23 20 20 24 14 6 16 25 22 22 23 21 20 20 17 18 17 15 15 16 18 17 14 9 4 5 5 7 10 6 2 3 3 5 4 2 6 7 7 9 8 10 12 10 9 10 6 7 14 16 14 9 4 1 4 9 13 13 15 16 14
27 29 29 29 36 35 32 32 31 29 29 29 27 27 27 30 33 34 35 34 34 32 29 27 24 24 23 24 23 21 25 21 10 18 23 15 16 17 19 20 20 17 19 17 16 17 18 20 19 16 8 3 7 7 9 9 3 1 4 6 6 5 4 6 6 8 9 8 10 12 8 6 10 7 5 11 14 16 16 13 7 3 4 11 15 14 15 15
28 30 32 32 34 34 31 30 31 29 27 27 26 26 27 30 33 35 36 35 34 32 29 27 24 26 24 25 25 18 20 20 18 23 18 12 11 15 19 20 20 18 19 17 16 18 18 20 21 16 7 5 9 9 11 8 2 3 7 9 8 6 7 7 6 7 8 9 11 10 5 4 8 6 6 11 12 13 16 17 16 13 9 9 13 16 15 15
30 33 35 33 33 33 31 29 30 29 28 26 25 26 28 31 33 35 36 35 34 32 30 27 25 27 26 27 22 13 17 23 25 28 20 11 9 15 20 19 18 19 19 18 17 19 19 19 22 17 6 8 10 8 10 6 3 11 13 11 9 8 7 6 6 7 8 10 10 7 4 3 5 4 4 7 10 12 14 16 17 17 16 13 12 15 16 16
31 34 35 33 31 33 32 29 28 30 28 25 25 27 29 32 34 35 35 34 34 32 30 28 27 27 27 28 21 12 18 28 29 28 21 15 11 14 20 17 17 18 18 18 18 20 19 15 20 17 4 8 10 6 6 3 7 18 19 13 9 8 8 5 5 7 5 5 6 6 4 3 4 4 4 6 6 6 8 13 16 16 17 17 14 14 17 17
32 34 34 31 28 30 32 30 30 31 28 25 26 29 30 32 33 34 34 34 33 32 30 28 27 27 26 26 24 19 18 24 26 23 21 19 12 13 17 16 16 16 16 18 17 19 18 13 18 15 4 9 11 5 6 8 13 17 13 8 6 5 5 4 2 3 1 2 7 7 3 4 6 6 6 9 9 7 6 7 12 16 16 17 17 16 16 18
32 33 33 31 26 27 30 31 30 31 28 25 27 30 32 32 33 33 33 32 32 31 30 28 27 27 25 21 24 25 16 14 18 17 18 17 13 14 16 15 16 16 16 17 16 19 17 12 16 13 8 11 7 5 10 11 12 11 4 2 5 5 3 3 3 0 1 3 7 6 2 4 7 7 7 9 9 9 8 6 8 13 15 17 18 18 16 17
32 33 32 29 25 26 30 31 30 30 28 25 28 31 31 31 32 31 31 31 31 31 29 27 27 26 23 16 19 26 18 12 14 13 14 15 13 15 16 15 15 15 16 15 14 17 16 13 15 11 8 10 10 12 11 7 5 6 3 2 3 5 4 3 3 1 2 4 6 4 4 3 4 3 6 9 10 9 9 7 8 11 14 16 17 19 18 17
31 31 30 27 24 26 30 32 31 30 29 27 28 29 29 29 30 30 30 30 30 29 28 27 27 24 18 12 13 21 22 17 14 11 12 13 14 17 16 15 15 14 14 14 13 16 15 13 13 9 8 13 15 12 6 3 2 2 3 4 1 4 3 3 3 2 0 3 3 3 4 4 1 3 4 6 8 11 11 9 10 11 13 16 17 19 20 19
30 30 29 25 23 25 30 32 32 30 29 27 27 27 28 28 28 29 29 29 29 28 27 26 28 22 11 9 11 17 23 22 16 11 11 12 15 16 15 14 14 14 14 12 12 15 16 13 11 10 11 11 10 7 5 4 3 0 2 3 2 3 3 3 2 3 2 1 3 2 2 2 1 1 3 4 3 6 8 10 12 13 13 15 17 18 20 21
30 30 27 25 23 25 30 33 33 30 28 29 28 27 27 27 28 29 28 28 26 26 26 25 27 18 6 8 12 15 22 24 20 14 10 14 16 15 16 15 14 14 14 13 14 16 16 13 11 9 8 4 3 6 7 6 6 3 1 1 1 3 4 3 3 2 2 1 3 1 3 5 1 2 4 5 2 2 5 7 10 13 14 14 16 17 20 22
29 29 27 26 24 25 30 33 32 29 29 29 27 26 27 27 28 27 26 27 25 23 20 21 23 12 6 12 13 15 21 23 22 16 12 16 17 15 16 15 15 15 16 14 13 13 12 9 7 5 4 3 4 8 8 6 8 8 5 3 2 2 3 2 3 2 0 2 4 2 4 10 7 5 6 7 9 9 10 10 10 13 14 14 16 18 20 22
28 28 28 27 25 27 29 31 31 29 30 29 26 28 27 27 25 23 26 28 24 15 8 19 24 6 3 16 16 14 18 19 20 18 15 18 18 16 15 14 17 18 15 11 8 8 8 6 4 5 6 6 8 9 5 3 6 9 7 5 5 5 3 1 2 2 0 3 6 6 7 10 9 9 9 10 11 12 13 15 16 16 17 17 17 19 20 21
28 27 29 27 26 27 28 31 31 30 32 30 32 32 26 25 18 13 25 27 19 7 2 23 31 6 1 17 19 15 17 17 19 19 18 20 20 18 16 15 17 15 10 6 5 6 6 5 5 7 8 10 9 4 2 3 4 8 6 3 3 4 3 1 2 2 1 3 6 6 7 10 10 10 11 11 9 11 14 17 19 20 20 20 20 20 20 21
28 27 28 27 28 27 28 32 31 32 32 32 39 32 22 26 15 14 25 16 10 5 3 25 31 7 3 19 23 20 19 16 17 21 20 21 22 17 14 14 12 8 3 3 5 4 5 6 7 5 4 6 6 4 5 5 5 7 6 5 3 2 2 2 1 2 2 3 2 1 5 11 12 11 13 12 9 11 15 15 18 21 21 22 21 21 22 21
25 26 28 28 28 27 28 31 29 32 32 35 40 25 22 29 17 25 31 11 7 6 7 29 26 5 6 19 23 23 20 13 12 21 22 23 23 15 11 11 8 5 3 4 6 4 5 7 5 5 5 8 6 2 5 6 5 5 3 5 4 2 3 2 1 2 1 2 1 1 4 10 11 10 12 13 11 13 16 17 18 20 20 22 22 22 22 23
24 24 27 28 28 27 28 28 29 33 35 39 37 21 25 26 13 28 29 10 8 5 8 30 21 5 10 17 21 21 18 12 12 21 24 25 23 15 13 10 5 5 4 6 8 6 6 4 4 8 9 10 5 1 6 6 3 2 2 4 3 3 3 2 4 3 1 1 1 0 4 8 8 8 9 11 12 15 19 21 22 22 23 24 24 24 24 25
23 22 24 28 28 27 27 27 29 33 36 39 32 22 27 22 17 30 21 8 6 3 7 26 20 11 12 15 18 16 14 12 14 22 26 26 22 14 12 9 6 6 6 7 7 6 3 2 3 8 7 8 7 4 6 6 3 0 2 3 2 5 3 1 5 5 1 1 1 1 5 6 4 5 6 4 5 11 15 16 18 21 23 25 25 26 26 26
24 22 22 27 28 27 28 26 28 33 37 37 29 24 28 23 24 29 14 6 4 2 5 17 15 11 12 14 16 13 11 11 14 23 26 25 22 13 9 9 6 5 5 5 5 4 1 1 5 8 4 5 7 6 6 6 4 2 4 3 1 6 6 4 7 6 3 3 1 2 5 3 0 4 5 0 2 5 6 8 11 13 15 18 21 22 22 23
25 22 22 26 27 29 28 24 29 34 37 36 29 26 28 25 28 26 10 3 4 3 5 10 10 11 12 12 16 15 8 6 13 23 26 23 21 14 9 6 2 2 5 5 3 2 2 2 4 5 7 7 6 6 5 4 4 3 2 2 2 6 8 8 8 4 2 2 2 1 4 3 1 3 2 1 4 5 4 5 7 8 9 11 14 15 16 18
26 23 23 25 27 32 30 25 32 37 36 33 29 28 27 27 28 21 7 2 4 6 6 7 8 12 13 12 18 13 4 8 13 18 22 21 19 15 9 5 2 3 4 4 3 1 3 4 2 3 7 7 6 6 5 6 6 3 0 3 6 8 9 8 6 2 0 1 1 1 2 3 4 2 1 2 5 7 5 3 2 2 3 4 7 10 12 14
26 23 22 24 26 32 31 28 35 39 35 32 30 28 27 28 26 15 5 2 4 6 6 6 8 12 14 16 18 9 6 13 11 10 19 18 15 11 6 5 4 5 3 3 5 1 3 5 5 6 6 6 5 2 3 5 3 0 0 2 5 6 6 5 3 2 2 1 3 1 3 4 5 2 1 2 3 6 5 2 1 1 1 1 1 3 6 9
26 23 22 22 23 29 30 28 34 35 31 31 30 28 29 28 20 7 2 3 4 4 5 8 9 11 14 15 12 6 9 9 3 10 18 15 12 8 4 7 9 9 4 2 2 1 2 3 3 4 4 4 2 3 1 1 1 4 6 5 6 5 5 3 2 3 2 3 4 2 2 4 4 2 1 1 2 5 3 2 1 1 3 5 6 4 1 2
25 23 22 22 24 31 31 26 30 31 31 33 30 30 32 24 12 5 4 4 4 4 5 9 9 10 14 11 4 3 5 2 4 14 14 8 9 7 8 11 10 8 4 6 5 2 2 2 2 1 0 4 5 5 4 2 6 11 8 7 8 4 3 3 2 2 2 3 2 2 2 3 3 2 2 2 1 2 0 3 2 2 5 7 9 9 7 6
25 23 23 22 26 32 31 29 31 32 34 34 31 33 29 13 3 6 6 4 5 4 4 6 5 10 16 12 5 3 2 2 6 13 10 4 6 7 9 9 6 5 2 3 4 2 2 3 2 1 4 6 6 6 7 3 6 6 3 6 6 3 1 2 2 0 4 4 2 2 3 3 5 3 1 1 2 2 1 3 4 3 4 6 8 9 8 9
25 24 22 21 24 29 30 30 33 35 35 33 34 34 20 5 3 6 4 6 6 5 5 5 4 8 14 10 6 5 4 2 4 7 7 4 4 5 4 4 5 4 4 5 3 2 3 2 1 2 3 4 4 6 6 1 1 1 4 7 5 3 2 3 2 2 4 2 2 1 2 3 6 5 5 6 3 4 5 4 2 1 1 3 6 8 8 8
24 23 23 22 24 28 29 29 35 37 35 35 35 25 8 3 8 5 4 5 2 2 5 6 4 7 11 8 5 4 3 2 4 3 2 2 4 4 0 0 3 2 3 6 5 4 3 1 1 3 3 6 4 5 5 4 4 5 6 7 5 5 4 5 3 1 3 0 2 1 1 3 4 5 8 9 3 3 6 8 7 6 4 1 3 5 6 7
24 23 24 24 25 29 27 31 37 36 36 38 29 13 4 7 6 4 6 5 1 3 4 6 7 8 9 6 5 6 3 2 3 3 2 3 5 4 2 2 2 1 3 3 3 5 5 3 4 3 2 4 4 1 2 4 5 3 1 1 4 4 3 4 3 1 1 2 2 1 2 3 2 0 3 5 4 5 9 10 12 11 9 6 2 2 4 7
24 25 25 23 28 31 28 34 38 35 39 35 17 6 8 10 4 5 8 4 2 3 4 8 10 8 4 1 2 4 0 1 3 2 3 5 7 7 7 6 4 2 4 5 2 2 2 1 1 1 1 2 2 2 2 4 4 1 2 0 2 1 2 2 1 1 1 1 1 2 3 3 2 3 4 4 4 7 8 9 11 12 12 10 5 1 4 7
27 29 26 23 30 31 28 36 37 35 39 26 8 7 8 4 2 4 6 5 5 7 10 9 7 6 4 1 1 3 2 2 4 3 3 3 3 7 8 5 6 6 5 5 3 1 2 1 2 2 2 2 1 1 2 1 3 2 2 3 2 1 4 4 2 1 0 3 2 2 4 3 2 5 3 2 2 3 4 5 7 9 10 9 7 4 6 7
31 31 28 26 32 30 29 36 36 36 34 16 7 9 3 1 1 2 5 7 9 13 12 8 4 4 6 4 4 6 2 3 3 3 4 3 2 6 6 3 6 9 5 2 2 2 3 3 2 1 2 2 2 2 4 5 3 2 3 5 4 1 1 2 1 1 1 3 1 1 4 3 2 3 1 1 3 4 4 3 4 5 7 8 7 7 8 8
31 31 27 28 31 29 30 34 35 35 25 7 7 8 0 1 1 2 7 9 10 11 8 6 4 2 6 7 6 8 6 5 4 3 4 4 3 7 9 4 5 9 7 2 1 1 2 3 2 1 1 1 2 1 3 5 6 2 2 4 3 2 2 2 2 2 2 3 2 1 2 3 4 4 2 1 5 5 4 3 3 4 8 11 10 9 9 8
32 27 22 26 29 28 30 33 33 30 16 5 8 7 1 2 1 2 11 11 7 7 6 5 2 1 5 7 7 8 7 6 7 5 4 4 3 6 9 5 3 8 8 3 1 2 2 1 2 1 1 0 1 2 5 4 3 3 2 3 0 1 2 2 2 1 2 3 2 1 1 2 5 5 5 4 3 1 2 4 3 5 10 12 10 9 10 11
32 19 14 26 29 26 30 32 27 19 8 5 6 3 1 3 1 5 11 9 4 2 3 4 3 4 4 3 5 8 6 5 8 5 3 5 4 3 6 6 4 5 4 2 1 2 1 1 2 2 1 2 3 2 4 5 4 3 4 5 3 1 1 1 1 2 1 2 2 2 2 2 2 3 6 5 2 2 1 2 3 6 10 11 9 9 12 15
30 10 9 28 29 26 32 26 15 10 5 2 2 2 2 3 4 6 8 6 2 2 2 3 4 5 5 4 5 6 5 5 8 6 3 5 6 3 6 10 9 9 5 2 2 2 1 1 4 4 3 3 2 1 2 2 0 2 4 5 6 4 3 4 4 1 1 1 1 1 2 2 1 1 4 3 1 1 1 2 3 6 11 10 9 12 16 19
25 5 12 32 30 31 34 16 5 6 3 2 4 4 4 5 6 7 7 4 3 3 2 3 2 3 4 4 4 6 7 5 7 8 4 6 8 4 5 11 15 18 12 3 1 2 2 3 4 3 2 1 2 2 1 3 2 1 1 1 3 3 4 5 5 3 3 1 1 1 2 3 1 1 2 3 2 3 3 4 4 6 12 13 14 18 21 23
17 6 18 36 35 34 29 9 2 5 1 2 6 5 5 5 4 6 6 4 2 2 1 2 1 1 2 3 4 8 10 6 7 9 4 4 5 1 3 11 16 17 11 3 2 3 3 3 4 3 1 0 1 0 0 1 1 2 3 2 2 2 2 1 1 3 4 4 3 2 4 3 1 1 3 5 6 6 6 6 5 9 15 18 20 23 24 23
16 10 17 34 39 35 21 7 7 7 3 5 5 4 4 3 4 7 7 4 2 2 3 2 1 1 1 2 4 9 11 5 6 7 3 2 4 1 4 13 16 13 8 4 7 9 6 3 4 4 2 2 1 2 2 2 3 4 3 3 3 3 5 4 2 2 3 5 6 5 6 4 1 0 2 3 4 5 4 7 10 14 19 22 24 25 24 23
15 10 10 23 37 35 16 5 8 7 5 7 5 5 5 2 2 7 7 5 3 3 4 2 2 3 3 3 3 5 8 3 2 4 2 1 1 1 3 11 14 11 6 3 9 13 7 2 5 7 5 6 6 6 6 4 4 3 2 5 7 7 8 5 3 3 4 5 7 7 6 1 1 1 2 2 2 2 4 8 12 15 20 23 25 26 25 23
6 4 4 9 20 25 12 4 8 8 7 9 6 5 6 4 2 4 6 5 3 3 3 2 3 4 3 5 5 6 8 1 1 4 5 3 2 1 1 7 10 8 4 4 12 13 3 1 6 9 9 8 8 6 3 4 6 7 7 8 8 8 7 4 3 4 5 4 5 9 6 2 3 4 4 4 4 2 3 8 12 16 20 23 26 26 25 22
1 1 4 3 5 10 5 4 9 7 8 12 7 5 8 6 4 4 4 3 6 7 3 3 4 5 5 9 7 6 8 3 1 4 4 3 2 1 1 4 7 6 4 7 13 9 2 3 8 10 10 4 2 3 3 5 8 9 8 10 9 8 8 7 8 9 5 5 7 11 8 6 7 6 6 5 4 2 4 11 15 17 21 25 26 26 24 21
1 1 3 4 3 3 4 8 12 8 10 12 6 5 9 7 6 7 4 1 5 7 2 1 5 7 9 12 8 5 7 4 2 3 3 2 3 2 2 3 2 4 3 6 9 5 2 6 7 8 9 1 4 2 4 5 6 5 8 12 12 11 12 13 15 11 8 8 12 8 9 12 10 8 7 7 8 8 10 14 16 17 20 24 25 25 24 21
2 1 2 3 2 2 6 11 14 11 12 12 5 5 10 12 10 6 3 4 4 5 4 4 6 8 9 11 8 7 9 7 5 4 3 4 4 2 3 2 1 3 3 4 4 2 3 5 3 5 7 2 4 1 1 4 4 4 8 12 13 13 14 14 15 13 12 12 11 3 6 11 10 9 9 11 13 12 8 9 12 16 20 24 25 26 25 23
3 2 3 4 3 4 8 11 12 10 9 10 8 6 8 12 12 6 2 5 7 5 4 4 7 8 7 8 6 6 11 11 8 8 8 7 4 3 4 3 3 2 2 3 3 1 3 3 3 4 5 2 2 2 1 2 3 4 6 9 10 13 14 15 16 13 10 10 10 4 5 9 7 11 11 13 14 9 5 8 12 15 20 25 28 28 27 25
6 5 6 5 3 3 6 7 7 8 8 10 10 8 8 12 13 9 3 3 5 7 6 6 8 7 5 7 6 4 9 9 7 14 19 13 10 9 5 4 9 8 4 3 3 2 3 2 3 3 5 2 2 2 3 3 3 1 4 9 13 14 13 12 10 7 9 12 11 7 8 8 6 12 13 14 14 12 12 14 15 16 21 26 30 31 30 28
8 8 8 6 2 2 4 4 4 7 7 8 10 9 9 10 11 10 5 3 3 7 11 14 13 8 5 8 7 6 10 9 8 17 20 11 10 11 5 8 15 12 7 6 3 2 4 5 3 4 6 2 2 0 4 5 2 4 7 12 17 15 10 6 2 4 10 12 10 9 11 7 7 10 10 9 10 14 18 21 23 23 24 27 31 33 32 30
Wind_Direction
202 204 205 203 200 202 202 198 198 197 198 203 207 209 211 212 212 210 211 212 213 214 212 212 207 201 195 185 208 220 224 240 249 254 242 235 236 239 260 263 260 268 258 252 244 214 200 211 204 191 179 178 191 185 178 160 154 156 156 187 176 181 186 180 177 167 121 141 157 173 183 183 169 176 182 184 188 198 209 209 212 204 207 188 168 166 179 181
202 204 205 204 203 205 204 202 198 195 196 202 206 208 210 212 212 210 210 210 212 212 212 210 202 195 186 181 207 226 227 232 242 249 237 227 231 242 257 261 253 254 250 241 236 214 203 212 199 184 175 177 191 178 175 157 152 138 117 195 194 174 134 165 169 151 82 143 152 169 183 187 173 168 176 183 177 188 206 209 217 215 208 194 181 170 178 184
201 206 208 206 206 208 206 202 196 193 196 203 206 207 209 211 211 210 208 209 208 207 206 204 197 186 178 184 199 213 221 230 242 244 233 213 212 238 258 256 248 247 245 234 229 219 210 217 202 181 174 178 187 180 177 162 157 122 176 203 172 144 95 155 170 152 107 130 146 159 175 180 165 165 179 192 164 192 218 209 208 219 215 202 192 181 181 189
202 208 207 206 207 204 198 194 192 193 198 203 205 205 207 209 209 207 205 205 203 201 200 197 189 181 180 189 194 198 208 227 244 236 230 210 208 237 259 254 245 246 243 227 220 220 213 217 201 180 177 178 182 185 182 170 167 141 181 245 116 145 142 158 177 172 145 141 152 150 160 172 171 174 177 179 182 208 228 224 215 220 216 208 204 199 192 194
201 205 204 205 198 187 184 187 192 196 199 204 205 203 204 205 206 203 200 199 196 194 192 186 178 176 182 190 191 191 193 215 239 229 224 207 210 235 253 250 244 243 235 217 212 215 208 207 194 180 180 176 172 185 186 168 157 133 148 5 91 154 155 156 175 181 167 150 154 149 157 169 168 180 185 193 217 217 230 234 229 232 224 216 212 210 204 200
199 201 204 202 184 177 182 188 193 198 200 203 202 199 198 201 202 198 194 192 190 189 186 182 173 172 181 186 187 183 180 177 233 222 208 202 220 238 244 242 238 237 225 209 206 209 203 198 190 181 177 171 176 181 167 163 164 156 137 59 108 132 109 154 170 176 165 151 155 158 161 165 164 183 199 209 228 232 256 261 235 234 227 221 217 216 213 207
199 200 204 197 181 180 189 193 196 199 198 196 193 192 192 193 194 192 190 188 187 184 182 183 175 173 179 179 180 181 190 209 216 192 190 209 244 242 232 228 226 228 217 205 202 204 198 193 191 183 169 157 183 180 156 158 174 170 129 141 124 101 113 155 169 170 166 160 161 165 160 162 174 184 204 222 233 233 238 247 235 233 221 218 217 219 220 219
198 199 198 188 181 184 191 195 197 197 193 189 187 187 187 185 185 186 185 185 184 182 181 183 176 174 176 176 178 182 201 219 198 171 187 233 266 231 217 216 216 220 212 205 204 201 195 193 192 184 176 176 173 164 157 155 177 160 130 152 128 99 117 136 149 157 163 165 161 162 154 162 186 191 215 233 236 235 237 238 240 257 231 218 217 219 220 223
193 194 192 184 182 186 189 192 194 193 187 185 186 184 182 181 181 182 182 182 181 180 181 182 177 173 174 179 179 186 207 208 191 188 205 260 266 216 210 209 209 212 208 205 205 202 197 195 193 187 194 186 163 157 169 174 205 153 129 140 132 104 113 116 125 142 152 154 153 154 138 152 183 199 239 241 243 239 237 241 242 245 251 235 221 221 221 223
190 189 188 185 186 188 188 189 191 188 181 182 186 182 180 179 179 181 181 181 180 179 181 182 177 172 175 179 176 194 204 187 193 209 222 258 255 212 205 205 206 206 205 203 202 202 200 201 198 193 200 175 157 153 174 192 174 139 124 115 114 109 111 114 127 132 133 141 154 157 135 132 161 191 236 228 235 238 234 238 241 243 245 244 232 224 223 224
187 188 187 185 189 193 192 188 184 182 180 181 183 180 180 179 178 180 180 181 180 179 181 182 178 175 178 179 178 195 191 184 202 221 228 243 251 215 201 203 204 202 204 202 200 200 202 209 199 191 201 175 156 133 160 164 131 135 126 104 95 106 101 87 125 133 123 136 159 151 124 111 143 202 222 190 199 220 227 231 234 239 240 239 237 230 226 225
187 187 188 190 192 195 194 187 181 180 179 181 182 182 181 179 178 179 180 181 180 179 181 180 177 177 179 184 193 194 185 190 210 227 230 235 244 216 200 199 202 203 204 203 203 199 201 206 197 195 194 165 152 131 152 138 132 135 131 114 106 128 104 57 79 146 143 150 152 143 149 189 193 212 203 194 211 225 233 234 229 233 235 235 234 232 230 228
187 188 190 194 194 196 192 183 180 179 176 179 184 183 181 181 180 180 181 180 180 179 179 177 175 176 178 190 203 199 194 199 209 223 225 228 233 212 200 199 200 201 201 203 204 199 200 198 197 198 169 155 142 135 140 126 134 138 133 133 135 169 157 41 2 274 169 156 152 155 229 208 197 213 201 200 218 228 235 239 232 230 231 234 234 234 235 232
185 188 190 193 194 193 190 182 176 173 174 180 183 182 181 181 180 180 180 180 178 176 175 173 172 174 182 197 207 205 208 204 201 212 213 216 217 203 201 202 198 198 198 200 200 198 199 195 195 190 158 150 129 125 125 103 126 133 140 182 155 190 176 70 18 337 172 164 162 184 252 221 159 180 209 221 226 228 228 227 232 232 230 233 234 235 237 237
183 185 187 190 189 186 188 183 171 170 178 179 177 177 177 177 177 176 177 177 175 172 170 169 171 174 187 205 207 206 209 205 199 199 201 206 204 199 198 197 193 192 193 194 195 195 193 188 185 164 130 140 135 130 122 93 82 93 163 172 183 214 168 92 44 2 180 165 174 197 246 250 183 144 190 226 233 229 227 227 232 233 235 237 237 237 238 239
182 185 185 185 181 182 186 178 169 175 178 171 168 171 173 173 172 172 173 171 169 168 166 168 173 174 183 207 202 201 205 207 202 195 197 195 193 195 192 186 185 184 184 186 184 185 182 173 160 136 124 139 150 147 133 136 153 239 226 160 159 198 175 146 102 17 354 150 202 223 273 266 88 126 181 173 177 206 224 233 235 237 241 242 241 240 240 239
181 183 181 180 178 177 179 175 173 175 170 163 163 164 165 166 168 169 167 165 165 164 165 170 174 176 200 209 197 196 200 204 202 200 196 185 185 189 185 177 176 177 174 170 168 168 166 158 147 135 131 147 186 164 155 175 178 167 259 108 152 194 179 175 140 54 359 235 217 218 272 253 174 128 184 175 175 250 257 251 241 241 243 243 244 244 243 242
179 180 178 177 177 172 174 178 174 168 162 158 157 156 158 161 163 163 160 158 155 154 163 173 172 177 223 204 197 194 195 199 199 202 194 180 179 180 181 174 169 168 158 153 158 157 150 144 143 145 155 166 186 186 184 185 175 175 183 158 153 205 217 209 144 127 43 212 224 196 244 254 247 240 235 237 263 280 278 270 257 246 244 242 244 248 248 246
176 177 177 175 176 172 175 177 171 163 157 153 150 148 148 149 149 153 156 153 149 147 167 181 176 178 236 191 190 186 186 190 192 195 189 178 174 174 179 173 166 160 151 152 160 155 142 128 146 176 177 179 190 204 203 170 172 175 169 152 153 168 206 240 96 72 221 200 218 217 233 254 256 257 256 250 261 273 273 272 266 256 251 247 246 249 251 250
174 177 177 175 174 173 174 174 169 162 155 152 150 144 141 143 136 146 159 156 156 157 216 181 179 193 295 177 176 169 168 176 183 184 181 178 171 169 172 164 160 158 156 161 154 155 155 157 187 192 184 184 186 189 97 91 140 148 147 142 153 166 170 121 94 55 5 221 218 223 247 263 261 262 265 260 260 263 263 264 262 258 255 253 251 250 250 250
173 177 177 175 174 172 173 171 167 163 158 157 155 149 152 156 150 162 161 157 169 165 174 176 177 204 223 170 167 165 160 161 176 177 176 176 170 167 168 161 161 166 155 117 112 131 173 194 199 185 163 153 143 113 95 99 114 137 160 159 162 204 141 94 106 80 50 241 210 169 257 259 256 258 260 257 250 246 247 247 252 254 253 254 253 252 250 249
172 177 178 178 175 171 172 170 166 164 160 159 159 156 164 164 164 168 157 138 157 148 161 173 176 211 183 165 163 162 156 147 168 176 173 174 173 171 168 166 173 166 118 123 128 138 196 208 180 132 109 97 90 98 105 90 106 130 152 161 173 175 125 109 138 101 69 246 211 117 255 261 256 255 253 246 240 243 244 243 246 249 249 250 249 250 250 248
170 176 180 180 176 171 172 169 166 167 164 164 162 157 164 164 161 164 153 116 135 110 157 173 179 190 157 159 161 157 154 146 162 175 174 173 176 178 170 166 164 145 153 182 173 172 193 209 125 132 142 127 105 109 113 99 110 125 142 165 167 152 160 187 162 140 67 353 321 256 265 272 258 250 247 239 240 248 251 250 249 248 248 249 248 248 248 247
168 174 182 181 176 173 171 167 166 169 169 167 163 158 164 160 151 158 145 89 129 69 155 174 182 180 158 159 165 162 158 155 164 173 175 174 172 173 168 157 140 149 176 190 184 178 170 5 119 145 159 149 137 152 157 157 159 352 205 178 145 165 193 13 123 138 136 148 0 320 268 266 247 243 239 229 243 250 253 255 253 251 251 252 252 252 251 251
169 173 182 180 179 175 168 165 168 171 172 169 164 161 164 157 151 155 139 80 144 75 141 174 181 181 171 167 170 167 156 155 164 171 176 177 171 161 155 156 158 173 174 158 168 185 116 39 155 147 144 152 147 165 186 189 173 201 227 214 201 172 153 102 129 145 181 189 82 344 263 247 136 248 234 230 318 254 246 253 255 253 252 253 255 256 256 254
172 174 179 181 180 173 166 168 171 172 173 172 165 160 163 158 153 157 144 87 179 151 138 169 178 184 186 176 165 158 148 158 169 172 175 180 177 164 148 150 147 161 155 137 150 190 85 115 167 153 149 151 161 177 184 192 180 187 212 175 152 150 133 133 153 166 202 189 78 341 258 255 302 257 217 4 305 276 252 242 254 251 245 252 256 258 258 255
175 176 179 182 181 174 170 173 174 173 174 172 164 160 162 157 156 161 150 92 195 167 142 159 173 184 187 173 162 156 149 160 163 172 176 177 181 175 165 160 108 132 153 142 162 159 109 137 169 151 149 154 174 183 180 190 188 177 156 140 144 140 138 147 155 158 42 83 128 66 316 280 274 264 37 348 288 273 254 216 233 246 240 257 261 263 260 255
179 180 181 181 184 181 177 178 177 174 172 167 160 159 159 156 159 166 161 167 171 144 142 159 165 176 175 167 166 158 132 149 152 177 179 174 176 176 180 182 142 125 143 174 187 166 97 165 177 154 154 170 180 165 144 172 179 147 132 139 136 122 121 136 133 110 58 267 207 103 22 267 255 245 11 347 285 262 246 175 116 88 63 36 318 279 264 252
181 182 181 180 184 184 183 185 181 172 164 161 159 158 156 157 157 154 187 198 148 119 143 153 153 167 165 159 163 142 133 148 137 165 171 171 173 175 168 161 134 111 78 27 156 69 17 192 183 162 172 169 124 36 40 195 81 141 150 112 94 84 82 91 89 109 106 254 221 103 17 263 259 246 184 24 278 254 242 119 73 68 71 70 74 65 66 205
183 181 181 182 181 182 186 186 177 166 159 160 160 157 155 155 155 160 205 199 146 125 138 146 154 164 159 149 136 117 139 139 104 140 153 157 161 147 121 132 125 111 70 36 70 53 1 110 101 20 130 126 103 65 25 0 121 141 151 112 94 73 61 69 40 81 181 243 210 70 347 277 269 263 205 188 239 264 180 119 132 118 89 80 76 73 81 101
185 183 187 189 185 184 184 177 170 163 160 161 158 156 153 143 149 185 188 159 133 133 138 148 155 158 164 162 145 138 122 65 131 146 149 141 139 128 121 131 124 111 113 85 79 42 68 98 82 68 108 120 115 78 47 57 129 141 164 131 110 83 78 108 71 113 225 225 108 46 322 259 239 245 177 221 238 246 213 132 127 119 99 85 75 74 84 100
187 189 193 193 190 187 181 172 166 160 160 161 157 156 151 124 205 203 171 144 151 171 171 170 175 167 169 163 138 141 124 112 167 162 152 146 149 148 150 175 160 145 171 162 135 104 111 93 23 82 139 177 151 101 83 74 202 206 161 150 143 129 156 195 178 202 232 224 65 352 294 243 242 259 269 261 233 203 224 214 188 253 143 88 74 77 89 107
189 192 191 191 189 184 177 169 163 159 159 159 158 156 144 177 198 184 154 172 173 144 143 142 149 160 159 150 142 149 112 125 179 172 136 143 163 165 2 264 158 152 173 157 142 148 138 116 171 139 179 227 212 137 147 188 202 185 161 163 170 147 167 198 176 246 256 204 60 291 281 248 246 265 257 250 228 181 227 241 252 261 252 243 62 71 92 119
188 189 185 187 184 177 173 168 163 160 158 158 157 150 149 194 190 126 157 196 14 70 109 116 121 140 151 153 169 166 101 73 169 146 125 155 167 182 205 201 204 56 102 136 159 168 169 177 178 160 153 194 215 227 156 136 152 182 151 162 180 165 187 198 176 215 216 106 95 177 242 232 197 120 249 253 276 261 248 249 254 256 252 252 278 59 110 138
178 180 181 183 179 173 171 168 165 161 160 159 157 160 184 193 181 148 166 166 109 111 104 115 126 139 148 70 164 189 105 118 169 134 152 174 177 186 189 187 200 175 141 161 183 163 176 170 93 18 13 163 184 294 348 103 127 161 11 97 212 179 122 111 104 155 107 86 152 184 246 257 265 290 265 242 264 261 248 244 247 251 251 246 246 190 152 161
169 176 180 183 177 171 170 170 167 164 163 161 161 190 197 194 152 164 153 128 141 136 118 122 131 142 153 67 191 238 328 108 163 171 176 197 208 194 192 185 187 197 181 159 155 159 162 105 8 8 55 52 9 317 344 55 150 152 155 178 191 65 102 113 124 89 7 250 193 165 253 272 287 281 267 178 214 228 212 219 227 238 244 237 227 201 183 179
172 177 181 183 176 170 169 171 169 168 169 172 192 191 193 48 133 150 127 119 136 139 134 145 162 163 162 160 185 193 175 121 165 198 171 173 224 192 194 216 188 195 210 158 156 220 162 114 11 350 99 59 5 86 67 25 33 147 176 160 137 85 93 122 160 117 159 247 217 165 244 265 233 250 333 88 216 206 182 197 206 209 216 208 196 191 191 183
171 173 177 182 177 169 169 172 172 171 172 189 206 192 114 99 170 116 133 130 136 149 156 157 163 188 172 171 179 177 173 160 166 188 166 171 219 183 176 198 191 193 210 200 153 209 145 112 70 352 78 60 347 137 117 41 21 15 167 136 128 205 194 167 180 165 180 226 243 208 246 267 219 215 302 244 214 209 183 172 186 185 187 186 182 188 194 178
163 166 177 185 178 171 172 173 172 171 174 210 204 194 105 116 136 166 151 140 137 159 170 159 148 210 180 176 166 164 183 177 157 168 177 182 211 184 175 181 178 189 194 182 172 155 110 123 137 76 335 341 314 235 191 157 65 40 120 135 355 293 202 187 163 170 211 205 229 252 215 238 215 213 240 226 193 188 164 163 190 187 179 182 184 187 187 170
166 164 180 182 175 173 173 169 167 172 187 218 196 176 121 119 137 182 161 145 132 158 169 170 160 155 165 170 155 164 188 178 162 180 203 181 183 197 196 184 146 159 160 105 106 142 109 175 146 106 323 216 188 218 215 183 146 138 164 169 176 113 51 245 123 65 262 193 197 240 239 236 211 203 226 223 101 68 163 185 202 188 178 181 185 182 174 162
174 164 171 175 174 173 167 160 164 183 203 212 165 128 169 148 135 164 166 145 91 55 121 140 149 152 149 152 162 168 171 164 173 191 203 187 197 220 205 189 160 145 136 89 143 169 160 150 133 133 181 194 185 322 306 288 180 165 187 184 175 150 134 187 193 123 14 236 190 225 267 263 192 172 230 234 106 126 221 257 231 193 185 183 177 169 163 158
176 157 163 172 176 171 162 154 172 186 188 167 146 123 141 146 137 153 166 147 85 55 82 94 109 146 150 160 168 162 161 165 182 192 204 205 208 214 195 187 168 159 159 151 151 140 88 102 118 127 179 210 329 334 265 282 302 330 275 217 174 170 168 191 205 171 129 122 92 85 282 277 93 125 240 243 232 222 247 260 241 187 177 173 165 161 158 156
168 139 158 168 174 171 163 158 193 178 199 160 137 107 123 142 135 141 165 176 108 71 107 99 121 169 162 158 153 164 170 174 186 191 198 200 201 198 162 172 165 163 164 145 135 148 112 104 114 97 80 52 325 318 142 305 274 232 237 209 177 199 181 148 183 149 145 167 155 158 252 254 117 159 249 256 257 261 257 235 198 165 163 162 160 159 156 156
147 134 157 166 170 172 172 182 186 179 175 153 130 106 125 129 137 152 172 190 168 146 146 130 154 176 158 141 150 173 178 180 199 200 195 181 181 111 158 171 167 169 179 182 173 176 177 145 129 124 114 137 177 202 203 210 216 227 221 175 176 138 95 82 101 134 189 196 175 192 237 241 105 143 252 254 259 268 246 198 174 162 161 162 161 160 159 159
136 129 156 167 171 178 191 219 184 168 144 144 140 141 139 83 142 169 168 160 158 162 146 139 147 117 120 130 110 165 181 173 196 188 147 126 172 66 164 182 182 182 187 185 166 167 178 178 156 158 160 175 194 202 204 190 181 209 201 177 185 163 149 159 142 160 217 194 171 207 233 213 75 272 252 240 239 241 197 182 175 168 164 164 165 165 165 166
134 128 154 164 173 183 202 221 170 160 152 153 147 156 159 133 128 169 156 151 173 159 106 99 136 104 111 162 141 167 191 187 20 175 162 158 170 8 174 179 187 190 169 159 161 156 146 266 188 196 198 191 195 197 179 127 147 189 196 174 175 177 175 162 118 186 204 146 175 227 229 175 175 199 213 214 204 200 190 186 182 174 170 170 171 172 172 171
70 131 166 147 158 175 187 183 170 159 164 168 159 163 164 142 126 158 166 186 188 169 97 48 163 160 166 169 159 173 183 160 92 161 150 137 140 9 56 143 174 182 142 155 165 149 110 208 202 216 220 203 144 154 148 147 172 189 177 162 168 174 171 175 201 211 158 123 225 233 212 207 205 188 201 210 187 187 217 205 192 181 177 178 179 180 179 179
119 114 176 167 158 170 175 186 182 162 163 174 162 151 161 153 158 171 171 179 184 183 162 71 199 200 175 167 164 160 161 148 139 156 135 138 148 113 71 75 159 184 143 154 168 145 160 203 199 207 213 184 61 122 167 163 174 172 161 168 172 170 175 192 212 208 154 182 237 218 180 209 208 185 207 212 193 200 209 204 195 187 186 186 185 186 187 190
141 111 169 152 139 138 133 159 174 169 168 175 170 165 171 172 173 166 130 130 172 212 215 177 194 200 180 173 166 154 165 171 173 184 170 153 154 138 130 115 203 201 153 145 169 163 183 193 166 181 201 170 73 102 188 149 150 159 174 178 171 174 187 199 212 209 186 212 242 172 168 222 205 179 206 212 209 214 210 204 201 196 196 194 193 194 196 199
166 165 158 120 85 114 125 139 161 170 171 178 185 186 180 179 176 160 133 167 171 189 211 186 168 164 172 183 174 175 188 181 172 182 171 155 168 186 176 171 166 167 157 145 153 196 209 184 109 142 191 190 71 45 37 124 153 161 176 185 178 183 198 208 216 214 199 228 250 216 236 256 200 176 205 218 219 224 212 212 216 211 205 201 200 202 202 205
186 170 157 140 97 135 149 142 155 167 174 188 194 184 185 193 180 153 152 223 194 178 177 156 139 132 156 183 181 189 189 179 174 176 170 165 173 180 191 182 161 154 163 170 150 154 192 168 82 130 190 212 20 58 105 80 55 119 187 199 193 194 203 208 213 201 189 218 235 227 252 261 172 166 200 217 221 224 223 223 227 228 221 212 210 211 209 211
179 168 164 161 130 152 165 140 149 171 177 190 192 180 187 196 172 150 162 227 236 196 175 159 147 136 156 186 194 191 179 177 175 170 168 163 157 157 150 157 162 162 161 162 147 133 165 153 129 174 191 191 1 105 133 103 94 236 226 205 197 201 204 191 203 216 203 211 215 216 235 235 142 159 193 202 207 219 226 228 230 233 232 223 219 218 217 220